Waseca, MN

1:30 AM CDT on August 23, 2017 (GMT -0500)
Waseca Municipal

Weather History for KACQ - October, 2013

Change the Weather History Date:

Thursday, October 17, 2013

  Actual Average Record
Temperature  
Mean Temperature 47 °F -  
Max Temperature 59 °F 57 °F 82 °F (1938)
Min Temperature 35 °F 34 °F 16 °F (1952)
Degree Days  
Heating Degree Days 18    
Moisture  
Dew Point 39 °F    
Average Humidity 81    
Maximum Humidity 93    
Minimum Humidity 45    
Precipitation  
Precipitation 0.00 in - - ()
Sea Level Pressure  
Sea Level Pressure 29.86 in    
Wind  
Wind Speed 6 mph (WSW)    
Max Wind Speed 17 mph    
Max Gust Speed 22 mph    
Visibility 10 miles    
Events Rain    
Averages and records for this station are not official NWS values.
T = Trace of Precipitation, MM = Missing Value Source: NWS Daily Summary

Daily Weather History Graph

Daily Weather History Graph

Search for Another Location

Airport or City:

Trip Planner

Search our weather history database for the weather conditions in past years. The results will help you decide how hot, cold, wet, or windy it might be!

Date:

Astronomy

Oct. 17, 2013 Rise Set
Actual Time 7:31 AM CDT 6:26 PM CDT
Civil Twilight 7:02 AM CDT 6:55 PM CDT
Nautical Twilight 6:28 AM CDT 7:29 PM CDT
Astronomical Twilight 5:55 AM CDT 8:02 PM CDT
Moon 5:42 PM CDT (10/17) 6:02 AM CDT (10/17)
Length of Visible Light 11h 53m
Length of Day
10h 54m
Waxing Gibbous, 98% of the Moon is Illuminated
Oct 17
Waxing Gibbous
Oct 18
Full
Oct 26
Last Quarter
Nov 3
New
Nov 9
First Quarter

Hourly Weather History & Observations

Time (CDT) Temp. Windchill Dew Point Humidity Pressure Visibility Wind Dir Wind Speed Gust Speed Precip Events Conditions
12:13 AM 37.4 °F 33.8 °F 35.6 °F 93% 29.93 in 10.0 mi South 4.6 mph - N/A   Clear
12:33 AM 37.4 °F 32.8 °F 35.6 °F 93% 29.93 in 10.0 mi South 5.8 mph - N/A   Clear
12:53 AM 37.4 °F 33.8 °F 35.6 °F 93% 29.92 in 10.0 mi SSW 4.6 mph - N/A   Clear
1:13 AM 37.4 °F 33.8 °F 35.6 °F 93% 29.91 in 10.0 mi SSW 4.6 mph - N/A   Clear
1:33 AM 37.4 °F 33.8 °F 35.6 °F 93% 29.91 in 10.0 mi SSW 4.6 mph - N/A   Clear
1:53 AM 37.4 °F 34.9 °F 35.6 °F 93% 29.91 in 10.0 mi South 3.5 mph - N/A   Clear
2:13 AM 37.4 °F 33.8 °F 35.6 °F 93% 29.91 in 10.0 mi South 4.6 mph - N/A   Clear
2:33 AM 37.4 °F 34.9 °F 35.6 °F 93% 29.91 in 10.0 mi South 3.5 mph - N/A   Clear
2:53 AM 37.4 °F 34.9 °F 35.6 °F 93% 29.90 in 10.0 mi South 3.5 mph - N/A   Clear
3:13 AM 35.6 °F 31.7 °F 33.8 °F 93% 29.90 in 10.0 mi South 4.6 mph - N/A   Clear
3:33 AM 35.6 °F 31.7 °F 33.8 °F 93% 29.89 in 10.0 mi South 4.6 mph - N/A   Clear
3:53 AM 37.4 °F 34.9 °F 35.6 °F 93% 29.89 in 10.0 mi SSW 3.5 mph - N/A   Clear
4:13 AM 35.6 °F - 33.8 °F 93% 29.88 in 10.0 mi Calm Calm - N/A   Clear
4:33 AM 35.6 °F - 33.8 °F 93% 29.88 in 10.0 mi Calm Calm - N/A   Clear
4:53 AM 35.6 °F 32.8 °F 33.8 °F 93% 29.88 in 10.0 mi South 3.5 mph - N/A   Clear
5:13 AM 37.4 °F - 35.6 °F 93% 29.88 in 10.0 mi Calm Calm - N/A   Clear
5:33 AM 37.4 °F - 35.6 °F 93% 29.87 in 10.0 mi Calm Calm - N/A   Clear
5:53 AM 37.4 °F 34.9 °F 35.6 °F 93% 29.87 in 10.0 mi South 3.5 mph - N/A   Clear
6:13 AM 37.4 °F - 35.6 °F 93% 29.86 in 10.0 mi Calm Calm - N/A   Clear
6:33 AM 37.4 °F - 35.6 °F 93% 29.86 in 10.0 mi Calm Calm - N/A   Clear
6:53 AM 37.4 °F - 35.6 °F 93% 29.86 in 10.0 mi Calm Calm - N/A   Clear
7:13 AM 35.6 °F - 33.8 °F 93% 29.86 in 7.0 mi Calm Calm - N/A   Clear
7:33 AM 35.6 °F - 33.8 °F 93% 29.85 in 10.0 mi Calm Calm - N/A   Clear
7:53 AM 35.6 °F 32.8 °F 33.8 °F 93% 29.85 in 7.0 mi SSE 3.5 mph - N/A   Clear
8:14 AM 37.4 °F 34.9 °F 35.6 °F 93% 29.86 in 10.0 mi South 3.5 mph - N/A   Clear
8:33 AM 37.4 °F - 35.6 °F 93% 29.86 in 10.0 mi Calm Calm - N/A   Clear
8:53 AM 41.0 °F 38.0 °F 37.4 °F 87% 29.86 in 10.0 mi South 4.6 mph - N/A   Clear
9:14 AM 42.8 °F 40.1 °F 39.2 °F 87% 29.86 in 10.0 mi SSW 4.6 mph - N/A   Scattered Clouds
9:33 AM 42.8 °F 40.1 °F 39.2 °F 87% 29.86 in 10.0 mi South 4.6 mph - N/A   Overcast
9:53 AM 42.8 °F 41.1 °F 37.4 °F 81% 29.86 in 10.0 mi South 3.5 mph - N/A   Overcast
10:13 AM 42.8 °F 39.3 °F 37.4 °F 81% 29.86 in 10.0 mi South 5.8 mph - N/A   Mostly Cloudy
10:33 AM 44.6 °F 41.4 °F 39.2 °F 81% 29.86 in 10.0 mi South 5.8 mph - N/A   Mostly Cloudy
10:53 AM 44.6 °F 41.4 °F 39.2 °F 81% 29.86 in 10.0 mi South 5.8 mph - N/A   Scattered Clouds
11:14 AM 46.4 °F 43.5 °F 41.0 °F 81% 29.85 in 10.0 mi SW 5.8 mph - N/A   Clear
11:33 AM 50.0 °F - 41.0 °F 71% 29.85 in 10.0 mi SW 4.6 mph - N/A   Clear
11:53 AM 53.6 °F - 42.8 °F 67% 29.85 in 10.0 mi SW 6.9 mph - N/A   Clear
12:13 PM 53.6 °F - 41.0 °F 62% 29.84 in 10.0 mi WSW 6.9 mph - N/A   Clear
12:33 PM 53.6 °F - 41.0 °F 62% 29.84 in 10.0 mi WSW 4.6 mph - N/A   Clear
12:54 PM 55.4 °F - 41.0 °F 58% 29.83 in 10.0 mi SW 3.5 mph - N/A   Clear
1:13 PM 57.2 °F - 41.0 °F 55% 29.82 in 10.0 mi WSW 6.9 mph - N/A   Clear
1:33 PM 59.0 °F - 41.0 °F 51% 29.81 in 10.0 mi SW 6.9 mph - N/A   Clear
1:53 PM 59.0 °F - 39.2 °F 48% 29.81 in 10.0 mi SW 4.6 mph - N/A   Clear
2:13 PM 59.0 °F - 41.0 °F 51% 29.80 in 10.0 mi WSW 12.7 mph 16.1 mph N/A   Scattered Clouds
2:34 PM 59.0 °F - 37.4 °F 45% 29.80 in 10.0 mi WSW 8.1 mph - N/A   Scattered Clouds
2:53 PM 59.0 °F - 39.2 °F 48% 29.79 in 10.0 mi WSW 6.9 mph - N/A   Mostly Cloudy
3:13 PM 59.0 °F - 37.4 °F 45% 29.79 in 10.0 mi SW 8.1 mph - N/A   Overcast
3:33 PM 59.0 °F - 41.0 °F 51% 29.79 in 10.0 mi SW 8.1 mph - N/A   Overcast
3:53 PM 59.0 °F - 41.0 °F 51% 29.79 in 10.0 mi West 12.7 mph - N/A   Overcast
4:13 PM 59.0 °F - 41.0 °F 51% 29.79 in 10.0 mi WNW 8.1 mph - N/A   Overcast
4:33 PM 59.0 °F - 42.8 °F 55% 29.80 in 10.0 mi West 12.7 mph 16.1 mph N/A   Overcast
4:54 PM 55.4 °F - 42.8 °F 63% 29.80 in 10.0 mi WNW 12.7 mph - N/A   Overcast
5:13 PM 53.6 °F - 42.8 °F 67% 29.81 in 10.0 mi WNW 12.7 mph - N/A   Overcast
5:33 PM 53.6 °F - 42.8 °F 67% 29.81 in 10.0 mi WNW 13.8 mph - N/A   Overcast
5:53 PM 51.8 °F - 44.6 °F 76% 29.81 in 10.0 mi West 10.4 mph - N/A   Light Drizzle
6:14 PM 50.0 °F - 44.6 °F 82% 29.82 in 10.0 mi WNW 9.2 mph - N/A Rain Light Rain
6:34 PM 48.2 °F - 42.8 °F 82% 29.83 in 10.0 mi WNW 11.5 mph - N/A   Overcast
6:53 PM 46.4 °F 40.7 °F 42.8 °F 87% 29.84 in 10.0 mi West 12.7 mph 17.3 mph N/A   Overcast
7:13 PM 46.4 °F 41.5 °F 42.8 °F 87% 29.84 in 10.0 mi WNW 10.4 mph - N/A   Overcast
7:33 PM 46.4 °F 41.1 °F 42.8 °F 87% 29.85 in 10.0 mi WNW 11.5 mph - N/A   Light Drizzle
7:53 PM 46.4 °F 39.8 °F 42.8 °F 87% 29.85 in 10.0 mi WNW 16.1 mph - N/A   Light Drizzle
8:13 PM 44.6 °F 38.1 °F 42.8 °F 93% 29.86 in 10.0 mi WNW 13.8 mph 19.6 mph N/A   Overcast
8:34 PM 44.6 °F 37.4 °F 41.0 °F 87% 29.86 in 10.0 mi West 16.1 mph 20.7 mph N/A   Overcast
8:54 PM 44.6 °F 38.4 °F 41.0 °F 87% 29.86 in 10.0 mi West 12.7 mph 19.6 mph N/A   Overcast
9:13 PM 44.6 °F 38.1 °F 41.0 °F 87% 29.87 in 10.0 mi West 13.8 mph 19.6 mph N/A   Overcast
9:34 PM 42.8 °F 35.8 °F 41.0 °F 93% 29.88 in 10.0 mi West 13.8 mph 20.7 mph N/A   Overcast
9:54 PM 42.8 °F 36.2 °F 41.0 °F 93% 29.88 in 4.0 mi WNW 12.7 mph 18.4 mph N/A   Overcast
10:13 PM 42.8 °F 34.8 °F 41.0 °F 93% 29.88 in 4.0 mi WNW 17.3 mph - N/A   Overcast
10:33 PM 42.8 °F 35.8 °F 41.0 °F 93% 29.88 in 4.0 mi WNW 13.8 mph 21.9 mph N/A Rain Rain
10:53 PM 42.8 °F 34.8 °F 41.0 °F 93% 29.89 in 10.0 mi WNW 17.3 mph 21.9 mph N/A   Overcast
11:13 PM 41.0 °F 33.9 °F 39.2 °F 93% 29.89 in 5.0 mi WNW 12.7 mph - N/A   Overcast
11:33 PM 41.0 °F 33.9 °F 37.4 °F 87% 29.89 in 3.0 mi WNW 12.7 mph - N/A   Overcast
11:53 PM 41.0 °F 33.9 °F 37.4 °F 87% 29.90 in 7.0 mi WNW 12.7 mph 19.6 mph N/A   Overcast